Terminal Aerodrome Forecast
Issued by NWS

Home | Current Version | Previous Version | Text Only | Print | Product List | Glossary On
Versions: 1 2 3 4 5 6 7 8 9 10 11 12 13 14 15 16 17 18 19 20 21 22 23 24 25 26 27 28 29 30 31 32 33 34 35 36 37 38 39 40 41 42 43 44 45 46 47 48 49 50
000
FTUS44 KHGX 261127
TAFSGR
TAF
KSGR 261127Z 2612/2712 17008KT P6SM SCT030 BKN100
     FM261500 18011KT P6SM VCSH BKN025
     FM261800 16014KT P6SM VCTS BKN035CB
     FM270300 14006KT P6SM BKN015=

USA.gov is the U.S. government's official web portal to all federal, state and local government web resources and services.